User: anonymous   Login
Location: Mainz-Finthen
(49.9906°N, 8.1713°E)
Time: 02:58:01
(UTC+00:00)
Language:

QB50P2 - Orbit

View from above orbital plane
View from above orbital plane
View from above satellite
View from above satellite

Ground track
Ground track

The orbit data is extracted from the following two-line orbital elements,

1 40032U 14033Y   21332.75296523  .00000789  00000-0  89536-4 0  9999
2 40032  97.9248 260.0238 0011873   2.7209 357.4070 14.89157669403741
Epoch (UTC): 28 November 2021 18:04:16
Eccentricity: 0.0011873
inclination: 97.9248°
perigee height: 592 km
apogee height: 609 km
right ascension of ascending node: 260.0238°
argument of perigee: 2.7209°
revolutions per day: 14.89157669
mean anomaly at epoch: 357.4070°
orbit number at epoch: 40374

The dashed part of the orbit path shows where the satellite is in the earth's shadow,  

DLR